Retour au catalogue

DELTA 1 DEB

ActifSSO
NORAD 12167·DEBRIS·🇺🇸 United States

Lancé Mar 5, 1978 depuis Vandenberg Space Force Base

Loading…

Prochains Passages (prochaines 24 heures)

TLE

FraisSource: Space-Track

Époque: Sep 14, 2026, 08:03 UTC

1 12167U 78026G   26257.33607137  .00000340  00000-0  17285-3 0  9995
2 12167  98.7640 202.6614 0157268 290.5629 222.5933 14.16150605344507

Suivez DELTA 1 DEB en temps réel avec AllMySat

Download on the App Store